Location: Владивосток
(43.1151°N, 131.8856°E)
Time: 05:21:09
(UTC+10:00)

ITAMSAT 1 - Pass Details

Date: 30 June 2022
Orbit: 784 x 795 km, 98.9° (Epoch: 09 August)

Event Time Altitude Azimuth Distance (km) Brightness Sun altitude
Rises 21:32:39 0° 210° (SSW) 3,261 10.8 -6.2°
Reaches altitude 10° 21:35:52 10° 231° (SW) 2,340 10.3 -6.6°
Maximum altitude 21:39:00 16° 269° (W) 1,951 10.4 -7.1°
Drops below altitude 10° 21:42:10 10° 307° (NW) 2,354 11.9 -7.5°
Sets 21:45:26 0° 329° (NNW) 3,291 12.6 -7.9°
